�������l�o���
Date,Time,MP-1(��Sv/h),MP-2(��Sv/h),MP-3(��Sv/h),MP-4(��Sv/h),MP-5(��Sv/h),MP-6(��Sv/h),MP-7(��Sv/h),MP-8(��Sv/h),����,����(m/s),���J
2023/08/27,00:00,0.554,0.835,0.509,1.037,0.757,0.328,0.587,0.542,���쐼,1.5,��
2023/08/27,00:10,0.555,0.838,0.510,1.036,0.757,0.329,0.586,0.541,���쐼,1.1,��
2023/08/27,00:20,0.555,0.838,0.510,1.035,0.757,0.329,0.589,0.541,�k��,0.6,��
2023/08/27,00:30,0.555,0.838,0.509,1.038,0.756,0.330,0.586,0.542,���k��,1.2,��
2023/08/27,00:40,0.555,0.840,0.510,1.037,0.758,0.330,0.587,0.541,�k��,2.3,��
2023/08/27,00:50,0.554,0.839,0.511,1.037,0.757,0.329,0.586,0.542,�k��,2.3,��
2023/08/27,01:00,0.556,0.838,0.511,1.035,0.758,0.328,0.586,0.542,�k�k��,2.2,��
2023/08/27,01:10,0.556,0.837,0.511,1.036,0.757,0.329,0.588,0.540,�k�k��,2.2,��
2023/08/27,01:20,0.555,0.838,0.510,1.036,0.757,0.328,0.587,0.542,�k��,2.3,��
2023/08/27,01:30,0.555,0.838,0.511,1.037,0.758,0.330,0.586,0.542,�k��,1.9,��
2023/08/27,01:40,0.556,0.838,0.509,1.037,0.757,0.330,0.587,0.542,���k��,1.2,��
2023/08/27,01:50,0.556,0.838,0.510,1.037,0.758,0.330,0.586,0.543,�k�k��,2.0,��
2023/08/27,02:00,0.555,0.840,0.509,1.037,0.758,0.330,0.586,0.542,�k�k��,1.5,��
2023/08/27,02:10,0.556,0.838,0.509,1.038,0.757,0.329,0.585,0.542,�k��,0.9,��
2023/08/27,02:20,0.556,0.838,0.511,1.038,0.757,0.330,0.586,0.543,���k��,0.6,��
2023/08/27,02:30,0.555,0.837,0.510,1.040,0.758,0.330,0.586,0.542,�k��,1.7,��
2023/08/27,02:40,0.554,0.838,0.512,1.038,0.758,0.330,0.586,0.542,�k�k��,1.5,��
2023/08/27,02:50,0.555,0.837,0.510,1.039,0.757,0.330,0.587,0.542,�k��,1.2,��
2023/08/27,03:00,0.556,0.840,0.510,1.038,0.758,0.329,0.587,0.542,���k��,0.8,��
2023/08/27,03:10,0.555,0.838,0.509,1.037,0.759,0.330,0.587,0.541,�k��,0.6,��
2023/08/27,03:20,0.555,0.838,0.511,1.039,0.759,0.329,0.586,0.542,��,0.9,��
2023/08/27,03:30,0.554,0.838,0.510,1.037,0.757,0.330,0.585,0.542,�k��,0.8,��
2023/08/27,03:40,0.555,0.838,0.511,1.039,0.757,0.328,0.586,0.541,�k��,0.9,��
2023/08/27,03:50,0.552,0.838,0.510,1.037,0.758,0.330,0.586,0.539,�k�k��,0.6,��
2023/08/27,04:00,0.555,0.838,0.511,1.038,0.758,0.329,0.584,0.541,-,CALM,�L
2023/08/27,04:10,0.554,0.838,0.510,1.038,0.758,0.328,0.584,0.541,-,CALM,�L
2023/08/27,04:20,0.554,0.838,0.512,1.038,0.759,0.329,0.585,0.542,���k��,1.2,�L
2023/08/27,04:30,0.555,0.837,0.511,1.038,0.759,0.330,0.586,0.542,-,CALM,��
2023/08/27,04:40,0.556,0.837,0.511,1.039,0.758,0.330,0.587,0.542,���k��,0.9,��
2023/08/27,04:50,0.554,0.839,0.511,1.039,0.756,0.329,0.588,0.542,���k��,0.9,��
2023/08/27,05:00,0.555,0.840,0.511,1.038,0.758,0.330,0.586,0.542,�k��,0.8,��
2023/08/27,05:10,0.555,0.838,0.510,1.039,0.758,0.330,0.587,0.542,�k,1.2,��
2023/08/27,05:20,0.555,0.838,0.510,1.039,0.758,0.328,0.587,0.542,�k,1.7,��
2023/08/27,05:30,0.555,0.841,0.511,1.039,0.756,0.330,0.586,0.543,�k,2.0,��
2023/08/27,05:40,0.556,0.840,0.511,1.038,0.757,0.330,0.588,0.543,�k�k��,2.3,��
2023/08/27,05:50,0.556,0.839,0.511,1.038,0.757,0.330,0.587,0.543,�k�k��,3.2,��
2023/08/27,06:00,0.555,0.839,0.511,1.041,0.757,0.329,0.586,0.542,�k�k��,3.5,��
2023/08/27,06:10,0.556,0.840,0.512,1.039,0.757,0.329,0.585,0.542,�k�k��,3.4,��
2023/08/27,06:20,0.553,0.839,0.511,1.039,0.757,0.329,0.587,0.542,�k,2.6,��
2023/08/27,06:30,0.557,0.839,0.512,1.038,0.756,0.330,0.586,0.542,�k�k��,2.6,�L
2023/08/27,06:40,0.555,0.839,0.511,1.039,0.757,0.329,0.586,0.541,�k,2.6,�L
2023/08/27,06:50,0.554,0.839,0.510,1.039,0.756,0.330,0.586,0.543,�k,3.0,��
2023/08/27,07:00,0.556,0.841,0.511,1.037,0.759,0.327,0.586,0.542,�k�k��,3.5,�L
2023/08/27,07:10,0.555,0.839,0.510,1.039,0.758,0.329,0.587,0.541,�k,2.0,��
2023/08/27,07:20,0.555,0.839,0.511,1.040,0.756,0.330,0.586,0.542,�k,3.2,�L
2023/08/27,07:30,0.557,0.836,0.512,1.037,0.759,0.330,0.586,0.540,�k,2.9,��
2023/08/27,07:40,0.556,0.837,0.513,1.038,0.757,0.329,0.586,0.543,�k�k��,3.0,��
2023/08/27,07:50,0.555,0.840,0.512,1.040,0.759,0.329,0.587,0.542,�k�k��,3.6,��
2023/08/27,08:00,0.556,0.841,0.511,1.039,0.757,0.329,0.586,0.542,�k�k��,2.6,��
2023/08/27,08:10,0.558,0.840,0.511,1.039,0.759,0.330,0.587,0.542,�k�k��,2.3,��
2023/08/27,08:20,0.558,0.838,0.513,1.038,0.759,0.329,0.587,0.541,�k�k��,3.0,��
2023/08/27,08:30,0.558,0.841,0.512,1.039,0.758,0.328,0.587,0.543,�k��,2.5,��
2023/08/27,08:40,0.556,0.838,0.510,1.037,0.758,0.327,0.588,0.542,�k��,1.5,��
2023/08/27,08:50,0.555,0.838,0.510,1.039,0.757,0.327,0.588,0.542,�k�k��,0.9,��
2023/08/27,09:00,0.556,0.840,0.512,1.038,0.760,0.328,0.588,0.543,-,CALM,��
2023/08/27,09:10,0.554,0.836,0.514,1.038,0.759,0.327,0.587,0.541,�k��,0.6,��
2023/08/27,09:20,0.557,0.838,0.512,1.037,0.757,0.328,0.589,0.543,��,1.1,��
2023/08/27,09:30,0.554,0.840,0.512,1.039,0.758,0.329,0.588,0.542,�k�k��,2.0,��
2023/08/27,09:40,0.555,0.839,0.511,1.038,0.757,0.330,0.587,0.542,��,1.2,��
2023/08/27,09:50,0.553,0.839,0.510,1.039,0.756,0.329,0.585,0.540,��쓌,0.6,��
2023/08/27,10:00,0.555,0.835,0.511,1.036,0.755,0.328,0.584,0.540,��,0.8,��
2023/08/27,10:10,0.555,0.838,0.511,1.037,0.757,0.330,0.587,0.541,�k��,1.7,��
2023/08/27,10:20,0.553,0.837,0.511,1.039,0.758,0.329,0.585,0.540,�k��,1.5,��
2023/08/27,10:30,0.554,0.837,0.510,1.039,0.757,0.327,0.585,0.541,�k�k��,1.5,��
2023/08/27,10:40,0.554,0.836,0.509,1.038,0.756,0.327,0.586,0.540,�k��,1.5,��
2023/08/27,10:50,0.555,0.838,0.509,1.037,0.756,0.329,0.587,0.542,�k��,2.2,��
2023/08/27,11:00,0.554,0.839,0.510,1.038,0.756,0.328,0.587,0.542,�k��,1.9,��
2023/08/27,11:10,0.556,0.838,0.510,1.038,0.755,0.328,0.586,0.542,���k��,2.5,��
2023/08/27,11:20,0.556,0.838,0.510,1.038,0.757,0.329,0.587,0.541,�k��,3.0,��
2023/08/27,11:30,0.555,0.841,0.511,1.037,0.758,0.327,0.587,0.542,�k��,2.9,��
2023/08/27,11:40,0.555,0.841,0.510,1.040,0.759,0.329,0.588,0.541,���k��,2.5,��
2023/08/27,11:50,0.554,0.842,0.512,1.039,0.758,0.328,0.586,0.540,��,2.0,��
2023/08/27,12:00,0.557,0.842,0.511,1.040,0.758,0.328,0.586,0.539,���k��,2.0,��
2023/08/27,12:10,0.557,0.840,0.513,1.041,0.758,0.328,0.586,0.543,���k��,2.3,��
2023/08/27,12:20,0.557,0.841,0.512,1.040,0.756,0.327,0.587,0.541,���k��,2.0,��
2023/08/27,12:30,0.557,0.840,0.512,1.039,0.758,0.330,0.585,0.542,���k��,2.0,��
2023/08/27,12:40,0.555,0.840,0.513,1.039,0.756,0.329,0.586,0.541,�k��,2.5,��
2023/08/27,12:50,0.557,0.840,0.514,1.036,0.758,0.329,0.586,0.541,��,2.3,��
2023/08/27,13:00,0.556,0.841,0.513,1.041,0.760,0.328,0.585,0.542,�k��,2.6,��
2023/08/27,13:10,0.558,0.842,0.513,1.039,0.759,0.329,0.587,0.542,���k��,2.6,��
2023/08/27,13:20,0.559,0.841,0.512,1.040,0.762,0.328,0.587,0.542,���k��,5.0,��
2023/08/27,13:30,0.558,0.840,0.511,1.039,0.759,0.328,0.587,0.542,��,6.5,��
2023/08/27,13:40,0.556,0.841,0.511,1.039,0.759,0.327,0.586,0.541,��,5.3,�L
2023/08/27,13:50,0.553,0.840,0.511,1.039,0.759,0.328,0.586,0.542,��,5.6,��
2023/08/27,14:00,0.554,0.840,0.511,1.037,0.759,0.326,0.586,0.540,��,4.7,��
2023/08/27,14:10,0.554,0.841,0.511,1.039,0.759,0.327,0.585,0.541,���k��,2.8,�L
2023/08/27,14:20,0.555,0.838,0.509,1.036,0.758,0.327,0.586,0.541,��,1.7,��
2023/08/27,14:30,0.553,0.838,0.511,1.040,0.758,0.328,0.585,0.542,���쓌,2.3,��
2023/08/27,14:40,0.555,0.841,0.510,1.036,0.757,0.327,0.586,0.541,�쓌,2.0,��
2023/08/27,14:50,0.557,0.838,0.510,1.039,0.759,0.327,0.585,0.541,�쓌,1.4,��
2023/08/27,15:00,0.555,0.839,0.512,1.042,0.759,0.330,0.588,0.540,���쓌,2.3,��
2023/08/27,15:10,0.556,0.840,0.512,1.039,0.759,0.328,0.587,0.541,�쓌,2.0,��
2023/08/27,15:20,0.556,0.840,0.512,1.041,0.758,0.327,0.588,0.540,���k��,1.4,��
2023/08/27,15:30,0.554,0.839,0.511,1.041,0.760,0.327,0.589,0.541,���k��,1.5,��
2023/08/27,15:40,0.554,0.839,0.512,1.037,0.759,0.328,0.587,0.539,���k��,1.7,��
2023/08/27,15:50,0.556,0.839,0.511,1.038,0.760,0.328,0.586,0.540,���k��,1.7,��
2023/08/27,16:00,0.556,0.841,0.512,1.037,0.759,0.329,0.589,0.541,�k��,0.9,��
2023/08/27,16:10,0.553,0.840,0.512,1.039,0.760,0.327,0.587,0.542,�k,0.9,��
2023/08/27,16:20,0.554,0.840,0.512,1.040,0.758,0.327,0.587,0.541,��,1.2,��
2023/08/27,16:30,0.553,0.838,0.511,1.039,0.758,0.327,0.588,0.541,�k��,1.5,��
2023/08/27,16:40,0.553,0.838,0.510,1.041,0.757,0.329,0.588,0.542,���k��,1.7,��
2023/08/27,16:50,0.555,0.837,0.511,1.040,0.757,0.327,0.587,0.541,���k��,1.9,��
2023/08/27,17:00,0.555,0.840,0.512,1.043,0.759,0.328,0.587,0.542,�k��,1.9,��
2023/08/27,17:10,0.555,0.840,0.511,1.039,0.758,0.329,0.587,0.541,�k�k��,1.5,��
2023/08/27,17:20,0.554,0.836,0.510,1.040,0.758,0.328,0.587,0.541,�k,1.7,��
2023/08/27,17:30,0.555,0.839,0.511,1.039,0.757,0.329,0.587,0.541,�k�k��,1.7,��
2023/08/27,17:40,0.555,0.837,0.511,1.039,0.760,0.328,0.585,0.540,�k�k��,1.5,��
2023/08/27,17:50,0.555,0.839,0.509,1.036,0.760,0.327,0.588,0.542,�k,1.5,��
2023/08/27,18:00,0.556,0.839,0.511,1.037,0.756,0.327,0.586,0.541,�k�k��,1.7,�L
2023/08/27,18:10,0.556,0.839,0.510,1.037,0.757,0.328,0.584,0.541,�k�k��,1.7,�L
2023/08/27,18:20,0.553,0.835,0.508,1.037,0.754,0.330,0.586,0.542,�k�k��,1.9,�L
2023/08/27,18:30,0.553,0.834,0.510,1.039,0.754,0.328,0.587,0.540,�k,1.7,�L
2023/08/27,18:40,0.553,0.837,0.508,1.037,0.757,0.329,0.587,0.540,�k,3.4,��
2023/08/27,18:50,0.552,0.837,0.508,1.041,0.756,0.328,0.585,0.541,�k,3.0,��
2023/08/27,19:00,0.555,0.836,0.510,1.041,0.756,0.329,0.586,0.541,�k,1.2,��
2023/08/27,19:10,0.552,0.835,0.511,1.039,0.755,0.328,0.586,0.542,�k,2.3,��
2023/08/27,19:20,0.554,0.836,0.510,1.038,0.755,0.330,0.586,0.541,�k,2.6,��
2023/08/27,19:30,0.554,0.836,0.511,1.037,0.756,0.329,0.587,0.541,�k,3.7,��
2023/08/27,19:40,0.554,0.836,0.509,1.039,0.754,0.330,0.586,0.542,�k�k��,3.6,��
2023/08/27,19:50,0.554,0.834,0.509,1.038,0.756,0.329,0.587,0.541,�k�k��,4.0,��
2023/08/27,20:00,0.554,0.837,0.511,1.041,0.756,0.328,0.586,0.543,�k�k��,4.2,��
2023/08/27,20:10,0.554,0.837,0.508,1.040,0.755,0.329,0.587,0.541,�k�k��,4.4,��
2023/08/27,20:20,0.553,0.836,0.510,1.039,0.754,0.328,0.587,0.542,�k�k��,4.6,��
2023/08/27,20:30,0.555,0.835,0.511,1.040,0.757,0.329,0.587,0.543,�k�k��,4.9,��
2023/08/27,20:40,0.555,0.835,0.510,1.039,0.757,0.329,0.587,0.543,�k�k��,5.2,��
2023/08/27,20:50,0.554,0.838,0.511,1.041,0.756,0.327,0.588,0.542,�k�k��,5.0,��
2023/08/27,21:00,0.554,0.837,0.509,1.040,0.756,0.329,0.587,0.542,�k�k��,6.4,��
2023/08/27,21:10,0.554,0.837,0.510,1.038,0.757,0.330,0.587,0.541,�k��,6.3,��
2023/08/27,21:20,0.554,0.836,0.509,1.041,0.758,0.331,0.587,0.542,�k��,6.0,��
2023/08/27,21:30,0.552,0.839,0.509,1.041,0.756,0.329,0.586,0.544,�k��,6.6,��
2023/08/27,21:40,0.554,0.836,0.511,1.040,0.756,0.329,0.587,0.542,�k��,6.0,��
2023/08/27,21:50,0.553,0.834,0.510,1.040,0.757,0.328,0.588,0.542,�k��,6.7,��
2023/08/27,22:00,0.554,0.837,0.510,1.041,0.756,0.329,0.587,0.542,�k�k��,6.3,��
2023/08/27,22:10,0.553,0.835,0.512,1.038,0.755,0.329,0.588,0.543,�k�k��,6.3,��
2023/08/27,22:20,0.551,0.835,0.511,1.040,0.755,0.330,0.587,0.544,�k�k��,6.1,��
2023/08/27,22:30,0.555,0.837,0.510,1.041,0.757,0.329,0.588,0.541,�k�k��,6.9,��
2023/08/27,22:40,0.553,0.837,0.512,1.042,0.755,0.330,0.587,0.544,�k�k��,7.1,��
2023/08/27,22:50,0.555,0.838,0.509,1.040,0.755,0.329,0.588,0.542,�k�k��,6.3,��
2023/08/27,23:00,0.556,0.836,0.510,1.042,0.757,0.329,0.587,0.543,�k�k��,7.1,��
2023/08/27,23:10,0.554,0.836,0.510,1.042,0.756,0.330,0.588,0.543,�k�k��,6.4,��
2023/08/27,23:20,0.554,0.837,0.511,1.041,0.756,0.330,0.586,0.544,�k�k��,6.5,��
2023/08/27,23:30,0.553,0.835,0.510,1.040,0.755,0.328,0.588,0.541,�k�k��,6.3,��
2023/08/27,23:40,0.555,0.837,0.510,1.041,0.756,0.330,0.588,0.543,�k�k��,7.5,��
2023/08/27,23:50,0.555,0.836,0.511,1.040,0.755,0.329,0.588,0.543,�k��,9.1,��
